DW2465 Weather Reports


time (UTC)temp
C
wind
direction
speed
KPH
gust
KPH
rain 1hr
cm
rain 24hr
cm
rain mn
cm
humidity
%
barometer
mb
20260507170022 10 316 0.0 0.0 0.00 0.00 0.00 32 1012.3
20260507164519 10 73 0.0 0.0 0.00 0.00 0.00 34 1012.7
20260507163016 9 360 0.0 0.0 0.00 0.00 0.00 35 1012.6
20260507161513 8 325 0.0 0.0 0.00 0.00 0.00 35 1012.8
20260507160010 8 302 0.0 0.0 0.00 0.00 0.00 38 1012.8
20260507154509 8 254 0.0 0.0 0.00 0.00 0.00 37 1012.9
20260507153007 8 26 0.0 0.0 0.00 0.00 0.00 40 1012.9
20260507151505 8 340 0.0 0.0 0.00 0.00 0.00 39 1013.0
20260507150001 8 174 0.0 0.0 0.00 0.00 0.00 43 1013.0
20260507144618 7 360 0.0 0.0 0.00 0.00 0.00 43 1013.1
20260507143102 7 249 0.0 0.0 0.00 0.00 0.00 43 1013.1
20260507141601 6 265 0.0 0.0 0.00 0.00 0.00 46 1013.1
20260507140049 6 314 0.0 0.0 0.00 0.00 0.00 47 1013.2
20260507134551 6 244 0.0 0.0 0.00 0.00 0.00 52 1013.3
20260507133111 5 244 0.0 0.0 0.00 0.00 0.00 55 1013.2
20260507131545 5 254 0.0 0.0 0.00 0.00 0.00 58 1013.4
20260507130045 5 256 0.0 0.0 0.00 0.00 0.00 60 1013.5
20260507124530 4 288 0.0 0.0 0.00 0.00 0.00 63 1013.4
20260507123035 3 288 0.0 0.0 0.00 0.00 0.00 65 1013.5
20260507121523 2 288 0.0 0.0 0.00 0.00 0.00 69 1013.5
20260507120021 2 288 0.0 0.0 0.00 0.00 0.00 72 1013.4
20260507114518 1 290 0.0 0.0 0.00 0.00 0.00 74 1013.4
20260507113017 1 290 0.0 0.0 0.00 0.00 0.00 73 1013.4
20260507111515 1 290 0.0 0.0 0.00 0.00 0.00 71 1013.5
20260507110016 1 291 0.0 0.0 0.00 0.00 0.00 71 1013.4
20260507104545 1 291 0.0 0.0 0.00 0.00 0.00 72 1013.4
20260507103049 1 291 0.0 0.0 0.00 0.00 0.00 73 1013.4
20260507101546 1 291 0.0 0.0 0.00 0.00 0.00 74 1013.5
20260507100040 1 291 0.0 0.0 0.00 0.00 0.00 73 1013.6
20260507094553 1 291 0.0 0.0 0.00 0.00 0.00 73 1013.6
20260507093040 1 291 0.0 0.0 0.00 0.00 0.00 71 1013.6
20260507091536 1 292 0.0 0.0 0.00 0.00 0.00 72 1013.8
20260507090036 1 292 0.0 0.0 0.00 0.00 0.00 72 1013.8
20260507084539 1 293 0.0 0.0 0.00 0.00 0.00 72 1013.7
20260507083033 1 296 0.0 0.0 0.00 0.00 0.00 73 1013.9
20260507081536 1 296 0.0 0.0 0.00 0.00 0.00 72 1013.5
20260507080027 1 296 0.0 0.0 0.00 0.00 0.00 71 1013.6
20260507074526 1 296 0.0 0.0 0.00 0.00 0.00 71 1013.8
20260507073024 1 296 0.0 0.0 0.00 0.00 0.00 72 1013.8
20260507071552 1 296 0.0 0.0 0.00 0.00 0.00 71 1014.0
20260507070057 1 296 0.0 0.0 0.00 0.00 0.00 69 1014.2
20260507064551 2 296 0.0 0.0 0.00 0.00 0.00 68 1014.2
20260507063043 2 296 0.0 0.0 0.00 0.00 0.00 68 1014.4
20260507061541 2 296 0.0 0.0 0.00 0.00 0.00 66 1014.5
20260507060039 2 296 0.0 0.0 0.00 0.00 0.00 68 1014.6
20260507054535 2 296 0.0 0.0 0.00 0.00 0.00 66 1014.6
20260507053034 2 296 0.0 0.0 0.00 0.00 0.00 64 1014.8
20260507051531 2 296 0.0 0.0 0.00 0.00 0.00 68 1014.8
20260507050031 3 296 0.0 0.0 0.00 0.00 0.00 65 1014.9
20260507044528 3 296 0.0 0.0 0.00 0.00 0.00 64 1014.9
20260507043027 3 296 0.0 0.0 0.00 0.00 0.00 64 1014.8
20260507041527 3 296 0.0 0.0 0.00 0.00 0.00 59 1015.0
20260507040026 3 296 0.0 0.0 0.00 0.00 0.00 60 1015.1
20260507034602 3 296 0.0 0.0 0.00 0.00 0.00 60 1015.3
20260507033107 3 296 0.0 0.0 0.00 0.00 0.00 59 1015.2
20260507031600 3 296 0.0 0.0 0.00 0.00 0.00 59 1015.2
20260507030107 4 296 0.0 0.0 0.00 0.00 0.00 57 1015.3
20260507024607 4 296 0.0 0.0 0.00 0.00 0.00 55 1015.3
20260507023051 4 296 0.0 0.0 0.00 0.00 0.00 54 1015.3
20260507021555 4 296 0.0 0.0 0.00 0.00 0.00 53 1015.4
20260507020057 4 296 0.0 0.0 0.00 0.00 0.00 53 1015.5
20260507014556 5 296 0.0 0.0 0.00 0.00 0.00 52 1015.4
20260507013053 5 296 0.0 0.0 0.00 0.00 0.00 51 1015.3
20260507011528 5 296 0.0 0.0 0.00 0.00 0.00 50 1015.4
20260507010020 6 296 0.0 0.0 0.00 0.00 0.00 49 1015.5
20260507004514 6 270 0.0 0.0 0.00 0.00 0.00 47 1015.5
20260507003014 6 256 0.0 0.0 0.00 0.00 0.00 47 1015.4
20260507001519 6 290 0.0 0.0 0.00 0.00 0.00 46 1015.4
20260507000013 6 248 0.0 0.0 0.00 0.00 0.00 46 1015.6
20260506234510 6 248 0.0 0.0 0.00 0.00 0.00 50 1015.7
20260506233010 6 237 0.0 0.0 0.00 0.00 0.00 49 1016.0
20260506231510 6 265 0.0 0.0 0.00 0.00 0.00 49 1015.9
20260506230009 6 288 0.0 0.0 0.00 0.00 0.00 48 1015.8
20260506224508 6 288 0.0 0.0 0.00 0.00 0.00 48 1015.8
20260506223037 6 289 0.0 0.0 0.00 0.00 0.00 48 1015.7
20260506221536 6 266 0.0 0.0 0.00 0.00 0.00 48 1015.9
20260506220033 6 256 0.0 0.0 0.00 0.00 0.00 48 1016.0
20260506214533 6 296 0.0 0.0 0.00 0.00 0.00 49 1016.0
20260506213035 6 240 0.0 0.0 0.00 0.00 0.00 49 1016.1
20260506211531 6 290 0.0 0.0 0.00 0.00 0.00 50 1016.3
20260506210005 6 215 0.0 0.0 0.00 0.00 0.00 50 1016.4
20260506204600 6 266 0.0 0.0 0.00 0.00 0.00 50 1016.4
20260506203053 5 279 0.0 0.0 0.00 0.00 0.00 51 1016.6
20260506201556 5 269 0.0 0.0 0.00 0.00 0.00 51 1016.5
20260506200051 5 228 0.0 0.0 0.00 0.00 0.00 53 1016.7
20260506194551 5 232 0.0 0.0 0.00 0.00 0.00 52 1016.6
20260506193048 5 259 0.0 0.0 0.00 0.00 0.00 53 1016.7
20260506191547 5 271 0.0 0.0 0.00 0.00 0.00 54 1016.8
20260506190044 4 300 0.0 0.0 0.00 0.00 0.00 55 1016.9
20260506184549 4 240 0.0 0.0 0.00 0.00 0.00 56 1016.9
20260506183040 4 259 0.0 0.0 0.00 0.00 0.00 55 1016.9
20260506181540 4 309 0.0 0.0 0.00 0.00 0.00 55 1016.9
20260506180040 4 244 0.0 0.0 0.00 0.00 0.00 55 1017.1
20260506174538 4 290 0.0 0.0 0.00 0.00 0.00 54 1017.1
20260506173016 4 244 0.0 0.0 0.00 0.00 0.00 54 1017.0
20260506171508 4 360 0.0 0.0 0.00 0.00 0.00 54 1017.1